Weather History for Forest City, IA

Change the Weather History Date:

Thursday, June 13, 2013

  Actual Average Record
Temperature  
Mean Temperature 69 °F -  
Max Temperature 78 °F 81 °F 78 °F (2013)
Min Temperature 60 °F 57 °F 42 °F (2014)
Cooling Degree Days 4    
Growing Degree Days 19 (Base 50)    
Moisture  
Dew Point 52 °F    
Average Humidity 55    
Maximum Humidity 73    
Minimum Humidity 34    
Precipitation  
Precipitation 0.00 in - - ()
Sea Level Pressure  
Sea Level Pressure 30.04 in    
Wind  
Wind Speed 10 mph (North)    
Max Wind Speed 20 mph    
Max Gust Speed 25 mph    
Visibility 10 miles    
Events      
Averages and records for this station are not official NWS values.
T = Trace of Precipitation, MM = Missing Value Source: NWS Daily Summary

Daily Weather History Graph

Daily Weather History Graph

Search for Another Location

Airport:

Trip Planner

Search our weather history database for the weather conditions in past years. The results will help you decide how hot, cold, wet, or windy it might be!

Date:

Astronomy

Jun. 13, 2013 Rise Set
Actual Time 5:33 AM CDT 8:55 PM CDT
Civil Twilight 4:58 AM CDT 9:31 PM CDT
Nautical Twilight 4:12 AM CDT 10:17 PM CDT
Astronomical Twilight 3:15 AM CDT 11:14 PM CDT
Moon 10:17 AM CDT (6/13) 11:55 PM CDT (6/13)
Length of Visible Light 16h 32m
Length of Day
15h 21m
Waxing Crescent, 22% of the Moon is Illuminated
Jun 13
Waxing Crescent
Jun 16
First Quarter
Jun 23
Full
Jun 29
Last Quarter
Jul 8
New

Hourly Weather History & Observations

Time (CDT) Temp. Dew Point Humidity Pressure Visibility Wind Dir Wind Speed Gust Speed Precip Events Conditions
12:15 AM 64.4 °F 55.4 °F 73% 29.93 in 10.0 mi NNW 19.6 mph 24.2 mph N/A   Overcast
12:35 AM 64.4 °F 55.4 °F 73% 29.91 in 10.0 mi North 15.0 mph 25.3 mph N/A   Mostly Cloudy
12:55 AM 66.2 °F 55.4 °F 68% 29.93 in 10.0 mi NNW 18.4 mph 24.2 mph N/A   Scattered Clouds
1:15 AM 64.4 °F 55.4 °F 73% 29.95 in 10.0 mi NNW 13.8 mph 20.7 mph N/A   Clear
1:35 AM 64.4 °F 55.4 °F 73% 29.95 in 10.0 mi NNW 12.7 mph - N/A   Clear
1:55 AM 64.4 °F 55.4 °F 73% 29.95 in 10.0 mi NNW 13.8 mph 17.3 mph N/A   Clear
2:15 AM 64.4 °F 53.6 °F 68% 29.96 in 10.0 mi NNW 12.7 mph 19.6 mph N/A   Clear
2:35 AM 64.4 °F 53.6 °F 68% 29.96 in 10.0 mi NNW 13.8 mph - N/A   Clear
2:55 AM 62.6 °F 53.6 °F 72% 29.96 in 10.0 mi NNW 15.0 mph 19.6 mph N/A   Clear
3:15 AM 62.6 °F 53.6 °F 72% 29.97 in 10.0 mi North 11.5 mph - N/A   Clear
3:35 AM 62.6 °F 53.6 °F 72% 29.98 in 10.0 mi NNW 11.5 mph - N/A   Clear
3:55 AM 62.6 °F 51.8 °F 68% 29.98 in 10.0 mi North 12.7 mph - N/A   Clear
4:15 AM 62.6 °F 51.8 °F 68% 29.98 in 10.0 mi North 12.7 mph - N/A   Clear
4:35 AM 62.6 °F 51.8 °F 68% 29.99 in 10.0 mi North 10.4 mph - N/A   Clear
4:55 AM 60.8 °F 51.8 °F 72% 29.99 in 10.0 mi North 9.2 mph - N/A   Clear
5:15 AM 60.8 °F 51.8 °F 72% 30.00 in 10.0 mi North 9.2 mph - N/A   Clear
5:35 AM 60.8 °F 51.8 °F 72% 30.00 in 10.0 mi North 9.2 mph - N/A   Clear
5:55 AM 60.8 °F 50.0 °F 68% 30.01 in 10.0 mi Calm Calm - N/A   Clear
6:15 AM 60.8 °F 50.0 °F 68% 30.02 in 10.0 mi Calm Calm - N/A   Clear
6:35 AM 60.8 °F 50.0 °F 68% 30.02 in 10.0 mi Calm Calm - N/A   Clear
6:55 AM 62.6 °F 50.0 °F 63% 30.03 in 10.0 mi Calm Calm - N/A   Clear
7:15 AM 62.6 °F 50.0 °F 63% 30.04 in 10.0 mi Calm Calm - N/A   Clear
7:35 AM 62.6 °F 51.8 °F 68% 30.05 in 10.0 mi Calm Calm - N/A   Clear
7:55 AM 64.4 °F 51.8 °F 64% 30.06 in 10.0 mi North 11.5 mph - N/A   Clear
8:15 AM 64.4 °F 51.8 °F 64% 30.06 in 10.0 mi North 10.4 mph - N/A   Clear
8:35 AM 64.4 °F 51.8 °F 64% 30.06 in 10.0 mi North 11.5 mph - N/A   Clear
8:55 AM 66.2 °F 51.8 °F 60% 30.07 in 10.0 mi NNW 9.2 mph - N/A   Clear
9:15 AM 68.0 °F 53.6 °F 60% 30.07 in 10.0 mi North 10.4 mph - N/A   Clear
9:35 AM 68.0 °F 53.6 °F 60% 30.07 in 10.0 mi North 9.2 mph - N/A   Clear
9:55 AM 68.0 °F 53.6 °F 60% 30.07 in 10.0 mi North 8.1 mph - N/A   Clear
10:15 AM 69.8 °F 53.6 °F 56% 30.08 in 10.0 mi North 8.1 mph - N/A   Clear
10:35 AM 71.6 °F 55.4 °F 57% 30.08 in 10.0 mi North 8.1 mph - N/A   Clear
10:55 AM 71.6 °F 55.4 °F 57% 30.08 in 10.0 mi North 9.2 mph - N/A   Clear
11:15 AM 71.6 °F 55.4 °F 57% 30.09 in 10.0 mi NNW 8.1 mph - N/A   Clear
11:35 AM 73.4 °F 53.6 °F 50% 30.08 in 10.0 mi NNE 6.9 mph - N/A   Clear
11:55 AM 73.4 °F 51.8 °F 47% 30.09 in 10.0 mi NNE 10.4 mph - N/A   Clear
12:15 PM 73.4 °F 50.0 °F 44% 30.09 in 10.0 mi North 11.5 mph - N/A   Clear
12:35 PM 75.2 °F 51.8 °F 44% 30.08 in 10.0 mi North 6.9 mph 17.3 mph N/A   Clear
12:55 PM 75.2 °F 51.8 °F 44% 30.08 in 10.0 mi NNW 10.4 mph - N/A   Clear
1:15 PM 75.2 °F 48.2 °F 38% 30.08 in 10.0 mi Calm Calm - N/A   Clear
1:35 PM 77.0 °F 48.2 °F 36% 30.08 in 10.0 mi North 6.9 mph - N/A   Clear
1:55 PM 77.0 °F 50.0 °F 39% 30.08 in 10.0 mi NNE 8.1 mph - N/A   Clear
2:15 PM 77.0 °F 48.2 °F 36% 30.08 in 10.0 mi NNE 5.8 mph - N/A   Clear
2:35 PM 77.0 °F 50.0 °F 39% 30.07 in 10.0 mi ENE 8.1 mph - N/A   Clear
2:55 PM 77.0 °F 51.8 °F 41% 30.06 in 10.0 mi NNE 5.8 mph - N/A   Scattered Clouds
3:15 PM 77.0 °F 50.0 °F 39% 30.06 in 10.0 mi NE 8.1 mph - N/A   Scattered Clouds
3:35 PM 78.8 °F 50.0 °F 36% 30.06 in 10.0 mi NE 11.5 mph - N/A   Clear
3:55 PM 78.8 °F 51.8 °F 39% 30.06 in 10.0 mi NE 10.4 mph 17.3 mph N/A   Clear
4:15 PM 77.0 °F 50.0 °F 39% 30.06 in 10.0 mi NNE 10.4 mph - N/A   Clear
4:35 PM 77.0 °F 50.0 °F 39% 30.07 in 10.0 mi North 3.5 mph - N/A   Scattered Clouds
4:55 PM 77.0 °F 48.2 °F 36% 30.07 in 10.0 mi NNE 4.6 mph - N/A   Scattered Clouds
5:15 PM 77.0 °F 48.2 °F 36% 30.07 in 10.0 mi Calm Calm - N/A   Clear
5:35 PM 78.8 °F 48.2 °F 34% 30.08 in 10.0 mi NE 5.8 mph - N/A   Clear
5:55 PM 77.0 °F 46.4 °F 34% 30.07 in 10.0 mi Calm Calm - N/A   Clear
6:15 PM 77.0 °F 50.0 °F 39% 30.07 in 10.0 mi Calm Calm - N/A   Clear
6:35 PM 77.0 °F 48.2 °F 36% 30.07 in 10.0 mi Calm Calm - N/A   Clear
6:55 PM 78.8 °F 50.0 °F 36% 30.06 in 10.0 mi Calm Calm - N/A   Clear
7:15 PM 77.0 °F 46.4 °F 34% 30.06 in 10.0 mi Calm Calm - N/A   Clear
7:35 PM 77.0 °F 50.0 °F 39% 30.06 in 10.0 mi Calm Calm - N/A   Clear
7:55 PM 77.0 °F 50.0 °F 39% 30.06 in 10.0 mi Calm Calm - N/A   Clear
8:15 PM 77.0 °F 50.0 °F 39% 30.06 in 10.0 mi Calm Calm - N/A   Clear
8:35 PM 73.4 °F 51.8 °F 47% 30.04 in 10.0 mi NE 3.5 mph - N/A   Clear
8:55 PM 73.4 °F 51.8 °F 47% 30.04 in 10.0 mi ENE 3.5 mph - N/A   Clear
9:15 PM 71.6 °F 51.8 °F 50% 30.04 in 10.0 mi Calm Calm - N/A   Clear
9:35 PM 71.6 °F 51.8 °F 50% 30.04 in 10.0 mi Calm Calm - N/A   Clear
9:55 PM 68.0 °F 53.6 °F 60% 30.04 in 10.0 mi Calm Calm - N/A   Clear
10:15 PM 68.0 °F 55.4 °F 64% 30.03 in 10.0 mi Calm Calm - N/A   Clear
10:35 PM 68.0 °F 53.6 °F 60% 30.02 in 10.0 mi ENE 3.5 mph - N/A   Clear
10:55 PM 69.8 °F 51.8 °F 53% 30.03 in 10.0 mi East 3.5 mph - N/A   Clear
11:15 PM 68.0 °F 53.6 °F 60% 30.03 in 10.0 mi ESE 3.5 mph - N/A   Clear
11:35 PM 68.0 °F 53.6 °F 60% 30.04 in 10.0 mi Calm Calm - N/A   Clear
11:55 PM 68.0 °F 53.6 °F 60% 30.05 in 10.0 mi Calm Calm - N/A   Clear